EW1268 Weather Reports


Display with metric or nautical units.
time (UTC)temp
F
wind
direction
speed
MPH
gust
MPH
rain 1hr
in
rain 24hr
in
rain mn
in
humidity
%
barometer
mb
20210920203141 98 155 1.0 6.0 0.00 0.00 0.00 49 1010.3
20210920202551 97 163 1.0 7.0 0.00 0.00 0.00 51 1010.4
20210920202052 96 180 2.0 7.0 0.00 0.00 0.00 49 1010.6
20210920201601 96 172 1.0 9.0 0.00 0.00 0.00 50 1010.5
20210920201049 96 206 2.0 9.0 0.00 0.00 0.00 52 1010.6
20210920200556 97 236 1.0 6.0 0.00 0.00 0.00 51 1010.7
20210920200145 96 197 1.0 5.0 0.00 0.00 0.00 61 1010.7
20210920195548 96 125 1.0 5.0 0.00 0.00 0.00 58 1010.8
20210920195049 96 163 0.0 4.0 0.00 0.00 0.00 55 1010.9
20210920194620 95 200 1.0 4.0 0.00 0.00 0.00 55 1010.9
20210920194054 94 173 1.0 4.0 0.00 0.00 0.00 57 1011.0
20210920193549 93 0 2.0 4.0 0.00 0.00 0.00 52 1011.0
20210920193133 95 241 1.0 4.0 0.00 0.00 0.00 52 1011.1
20210920192616 95 0 1.0 7.0 0.00 0.00 0.00 53 1011.1
20210920192123 95 202 2.0 7.0 0.00 0.00 0.00 53 1011.1
20210920191607 96 219 1.0 7.0 0.00 0.00 0.00 60 1011.1
20210920191113 96 146 1.0 9.0 0.00 0.00 0.00 62 1011.0
20210920190549 96 138 2.0 9.0 0.00 0.00 0.00 53 1011.1
20210920190203 96 182 1.0 5.0 0.00 0.00 0.00 55 1011.2
20210920185553 95 158 1.0 5.0 0.00 0.00 0.00 58 1011.3
20210920185105 94 237 1.0 5.0 0.00 0.00 0.00 56 1011.4
20210920184720 95 146 1.0 5.0 0.00 0.00 0.00 56 1011.3
20210920184108 94 157 0.0 4.0 0.00 0.00 0.00 58 1011.4
20210920183549 93 147 1.0 4.0 0.00 0.00 0.00 57 1011.5
20210920183136 93 246 1.0 6.0 0.00 0.00 0.00 59 1011.6
20210920182557 93 155 1.0 7.0 0.00 0.00 0.00 59 1011.6
20210920182049 92 173 2.0 7.0 0.00 0.00 0.00 68 1011.7
20210920181620 91 209 1.0 7.0 0.00 0.00 0.00 58 1011.8
20210920181049 91 270 2.0 6.0 0.00 0.00 0.00 61 1011.9
20210920180551 91 0 1.0 4.0 0.00 0.00 0.00 59 1011.8
20210920180139 91 163 0.0 8.0 0.00 0.00 0.00 60 1011.9
20210920175604 91 0 1.0 8.0 0.00 0.00 0.00 60 1012.0
20210920175056 92 281 2.0 6.0 0.00 0.00 0.00 60 1011.9
20210920174651 92 256 2.0 7.0 0.00 0.00 0.00 61 1012.0
20210920174048 91 207 1.0 7.0 0.00 0.00 0.00 68 1012.0
20210920173549 91 205 1.0 5.0 0.00 0.00 0.00 71 1012.1
20210920173126 90 274 2.0 4.0 0.00 0.00 0.00 61 1012.2
20210920172547 90 211 1.0 5.0 0.00 0.00 0.00 62 1012.3
20210920172047 90 191 1.0 5.0 0.00 0.00 0.00 62 1012.4
20210920171640 89 180 2.0 5.0 0.00 0.00 0.00 62 1012.5
20210920171047 89 163 1.0 5.0 0.00 0.00 0.00 62 1012.5
20210920170551 89 238 1.0 6.0 0.00 0.00 0.00 63 1012.5
20210920170119 89 194 2.0 6.0 0.00 0.00 0.00 64 1012.5
20210920165548 88 147 1.0 5.0 0.00 0.00 0.00 72 1012.7
20210920165048 89 168 2.0 7.0 0.00 0.00 0.00 63 1012.6
20210920164701 89 244 2.0 7.0 0.00 0.00 0.00 65 1012.6
20210920164049 88 181 1.0 6.0 0.00 0.00 0.00 67 1012.6
20210920163546 87 222 2.0 6.0 0.00 0.00 0.00 67 1012.8
20210920163112 87 236 1.0 6.0 0.00 0.00 0.00 65 1012.7
20210920162600 87 234 2.0 5.0 0.00 0.00 0.00 66 1012.7
20210920162049 87 199 2.0 6.0 0.00 0.00 0.00 66 1012.7
20210920161653 87 272 2.0 6.0 0.00 0.00 0.00 66 1012.9
20210920161048 87 0 2.0 6.0 0.00 0.00 0.00 66 1012.8
20210920160600 87 259 2.0 6.0 0.00 0.00 0.00 68 1012.8
20210920160214 86 165 1.0 5.0 0.00 0.00 0.00 78 1012.7
20210920155551 85 0 2.0 7.0 0.00 0.00 0.00 69 1012.8
20210920155057 85 229 3.0 7.0 0.00 0.00 0.00 69 1012.8
20210920154749 85 139 2.0 6.0 0.00 0.00 0.00 70 1012.7
20210920154105 84 223 1.0 6.0 0.00 0.00 0.00 70 1012.6
20210920153604 84 207 1.0 4.0 0.00 0.00 0.00 72 1012.7
20210920153128 83 0 1.0 7.0 0.00 0.00 0.00 72 1012.8
20210920152547 83 222 2.0 7.0 0.00 0.00 0.00 72 1012.8
20210920152055 83 232 2.0 6.0 0.00 0.00 0.00 80 1012.7
20210920151826 84 260 0.0 7.0 0.00 0.00 0.00 73 1012.7
20210920151047 83 232 1.0 7.0 0.00 0.00 0.00 74 1012.6
20210920150549 83 222 1.0 6.0 0.00 0.00 0.00 74 1012.6
20210920150222 83 209 2.0 6.0 0.00 0.00 0.00 74 1012.6
20210920145551 83 220 1.0 6.0 0.00 0.00 0.00 76 1012.5
20210920145059 82 276 2.0 6.0 0.00 0.00 0.00 76 1012.4
20210920144645 82 216 0.0 8.0 0.00 0.00 0.00 77 1012.4
20210920144055 82 240 1.0 8.0 0.00 0.00 0.00 77 1012.4
20210920143548 82 244 0.0 5.0 0.00 0.00 0.00 79 1012.4
20210920143231 81 0 1.0 6.0 0.00 0.00 0.00 79 1012.2
20210920142553 81 173 1.0 6.0 0.00 0.00 0.00 80 1012.2
20210920142048 80 175 0.0 4.0 0.00 0.00 0.00 80 1012.1
20210920141726 80 222 1.0 4.0 0.00 0.00 0.00 81 1012.1
20210920141048 79 161 1.0 3.0 0.00 0.00 0.00 81 1012.1
20210920140548 79 153 0.0 3.0 0.00 0.00 0.00 81 1012.2
20210920140120 78 0 0.0 2.0 0.00 0.00 0.00 81 1012.2
20210920135550 78 0 0.0 3.0 0.00 0.00 0.00 81 1012.2
20210920135049 78 177 0.0 3.0 0.00 0.00 0.00 82 1012.0
20210920134700 77 235 1.0 2.0 0.00 0.00 0.00 82 1012.1
20210920134054 77 157 0.0 3.0 0.00 0.00 0.00 81 1012.1
20210920133557 77 0 0.0 4.0 0.00 0.00 0.00 81 1012.0
20210920133205 76 159 0.0 4.0 0.00 0.00 0.00 81 1012.0
20210920132548 76 132 0.0 2.0 0.00 0.00 0.00 81 1012.0
20210920132054 76 0 0.0 2.0 0.00 0.00 0.00 82 1012.0
20210920131626 76 126 0.0 2.0 0.00 0.00 0.00 81 1011.8
20210920131139 75 0 0.0 2.0 0.00 0.00 0.00 81 1011.9
20210920130549 75 0 0.0 1.0 0.00 0.00 0.00 81 1011.9
20210920130130 74 0 0.0 0.0 0.00 0.00 0.00 81 1011.9
20210920125619 74 0 0.0 0.0 0.00 0.00 0.00 81 1011.9
20210920125050 74 0 0.0 0.0 0.00 0.00 0.00 81 1011.8
20210920124715 74 0 0.0 0.0 0.00 0.00 0.00 81 1011.7
20210920124048 74 0 0.0 0.0 0.00 0.00 0.00 81 1011.6
20210920123612 74 0 0.0 0.0 0.00 0.00 0.00 81 1011.6
20210920123218 74 0 0.0 0.0 0.00 0.00 0.00 80 1011.5
20210920122548 74 0 0.0 0.0 0.00 0.00 0.00 80 1011.5
20210920122051 74 0 0.0 0.0 0.00 0.00 0.00 80 1011.4
20210920121653 74 0 0.0 0.0 0.00 0.00 0.00 80 1011.4
20210920121048 74 0 0.0 0.0 0.00 0.00 0.00 81 1011.4
20210920120556 74 0 0.0 0.0 0.00 0.00 0.00 81 1011.2
20210920120137 75 0 0.0 0.0 0.00 0.00 0.00 81 1011.2
20210920115549 75 0 0.0 0.0 0.00 0.00 0.00 80 1011.1
20210920115046 75 0 0.0 0.0 0.00 0.00 0.00 80 1011.1
20210920114629 75 0 0.0 0.0 0.00 0.00 0.00 80 1011.0
20210920114047 75 0 0.0 0.0 0.00 0.00 0.00 80 1010.9
20210920113547 75 0 0.0 0.0 0.00 0.00 0.00 80 1010.9
20210920113233 75 0 0.0 0.0 0.00 0.00 0.00 80 1010.8
20210920112548 75 0 0.0 0.0 0.00 0.00 0.00 80 1010.9
20210920112046 75 0 0.0 0.0 0.00 0.00 0.00 80 1010.8
20210920111624 75 0 0.0 0.0 0.00 0.00 0.00 80 1010.8
20210920111056 75 0 0.0 0.0 0.00 0.00 0.00 80 1011.0
20210920110553 75 0 0.0 0.0 0.00 0.00 0.00 80 1010.8
20210920110128 75 0 0.0 0.0 0.00 0.00 0.00 80 1010.8
20210920105605 75 0 0.0 0.0 0.00 0.00 0.00 80 1010.8
20210920105105 75 0 0.0 0.0 0.00 0.00 0.00 80 1010.9
20210920104646 75 0 0.0 1.0 0.00 0.00 0.00 80 1010.8
20210920104053 75 0 0.0 2.0 0.00 0.00 0.00 80 1010.8
20210920103606 75 0 0.0 2.0 0.00 0.00 0.00 80 1010.8
20210920103309 75 0 0.0 1.0 0.00 0.00 0.00 80 1010.7
20210920102600 75 0 0.0 1.0 0.00 0.00 0.00 80 1010.6
20210920102049 75 0 0.0 1.0 0.00 0.00 0.00 80 1010.8
20210920101602 75 0 0.0 1.0 0.00 0.00 0.00 80 1010.6
20210920101049 75 0 0.0 2.0 0.00 0.00 0.00 80 1010.7
20210920100548 75 0 0.0 2.0 0.00 0.00 0.00 80 1010.6
20210920100151 75 151 0.0 1.0 0.00 0.00 0.00 79 1010.6
20210920095549 75 0 0.0 0.0 0.00 0.00 0.00 79 1010.7
20210920095049 75 0 0.0 0.0 0.00 0.00 0.00 79 1010.7
20210920094638 75 0 0.0 0.0 0.00 0.00 0.00 79 1010.6
20210920094050 75 0 0.0 0.0 0.00 0.00 0.00 79 1010.6
20210920093548 75 0 0.0 0.0 0.00 0.00 0.00 79 1010.7
20210920093126 76 0 0.0 0.0 0.00 0.00 0.00 79 1010.7
20210920092548 76 0 0.0 0.0 0.00 0.00 0.00 79 1010.7
20210920092048 76 0 0.0 0.0 0.00 0.00 0.00 79 1010.7
20210920091614 76 0 0.0 0.0 0.00 0.00 0.00 79 1010.7
20210920091048 76 0 0.0 0.0 0.00 0.00 0.00 79 1010.8
20210920090551 76 0 0.0 0.0 0.00 0.00 0.00 79 1010.6
20210920090130 76 0 0.0 0.0 0.00 0.00 0.00 79 1010.7
20210920085552 76 0 0.0 0.0 0.00 0.00 0.00 79 1010.9
20210920085054 76 0 0.0 0.0 0.00 0.00 0.00 79 1010.7
20210920084601 76 0 0.0 0.0 0.00 0.00 0.00 79 1010.8
20210920084054 76 0 0.0 1.0 0.00 0.00 0.00 79 1010.9
20210920083611 76 0 0.0 1.0 0.00 0.00 0.00 79 1010.9
20210920083139 76 152 0.0 2.0 0.00 0.00 0.00 79 1010.9
20210920082559 76 0 0.0 2.0 0.00 0.00 0.00 78 1010.9
20210920082049 76 0 0.0 1.0 0.00 0.00 0.00 78 1010.9
20210920081640 76 152 0.0 1.0 0.00 0.00 0.00 78 1011.0
20210920081048 76 0 0.0 2.0 0.00 0.00 0.00 78 1011.0
20210920080556 76 0 0.0 2.0 0.00 0.00 0.00 78 1011.0
20210920080120 76 0 0.0 2.0 0.00 0.00 0.00 78 1010.9
20210920075547 76 0 0.0 1.0 0.00 0.00 0.00 78 1011.0
20210920075048 77 0 0.0 1.0 0.00 0.00 0.00 78 1011.1
20210920074624 76 0 0.0 1.0 0.00 0.00 0.00 78 1011.1
20210920074048 77 0 0.0 4.0 0.00 0.00 0.00 78 1011.1
20210920073548 77 0 0.0 4.0 0.00 0.00 0.00 78 1011.1
20210920073145 77 150 0.0 2.0 0.00 0.00 0.00 78 1011.1
20210920072548 77 0 0.0 2.0 0.00 0.00 0.00 78 1011.4
20210920072107 77 0 0.0 1.0 0.00 0.00 0.00 78 1011.3
20210920071636 77 0 0.0 1.0 0.00 0.00 0.00 77 1011.5
20210920071047 77 0 0.0 1.0 0.00 0.00 0.00 77 1011.4
20210920070550 77 0 0.0 2.0 0.00 0.00 0.00 77 1011.4
20210920070228 77 0 0.0 2.0 0.00 0.00 0.00 78 1011.5
20210920065552 77 0 0.0 2.0 0.00 0.00 0.00 78 1011.4
20210920065053 77 0 0.0 2.0 0.00 0.00 0.00 77 1011.4
20210920064727 77 0 0.0 3.0 0.00 0.00 0.00 77 1011.2
20210920064048 77 0 0.0 3.0 0.00 0.00 0.00 77 1011.2
20210920063609 77 0 0.0 1.0 0.00 0.00 0.00 77 1011.3
20210920063054 77 0 0.0 2.0 0.00 0.00 0.00 77 1011.3
20210920062547 77 0 0.0 4.0 0.00 0.00 0.00 77 1011.4
20210920062101 77 0 0.0 4.0 0.00 0.00 0.00 77 1011.4
20210920061630 77 0 0.0 4.0 0.00 0.00 0.00 77 1011.3
20210920061054 77 153 0.0 1.0 0.00 0.00 0.00 77 1011.4
20210920060549 77 0 0.0 1.0 0.00 0.00 0.00 76 1011.2
20210920060218 77 0 0.0 2.0 0.00 0.00 0.00 76 1011.3
20210920055549 77 0 0.0 2.0 0.00 0.00 0.00 76 1011.4
20210920055054 77 0 0.0 2.0 0.00 0.00 0.00 76 1011.3
20210920054832 77 0 0.0 4.0 0.00 0.00 0.00 76 1011.3
20210920054052 78 0 0.0 4.0 0.00 0.00 0.00 76 1011.2
20210920053555 78 153 0.0 3.0 0.00 0.00 0.00 76 1011.3
20210920053134 78 150 0.0 4.0 0.00 0.00 0.00 76 1011.3
20210920052547 78 0 0.0 4.0 0.00 0.00 0.00 76 1011.4
20210920052047 78 0 0.0 3.0 0.00 0.00 0.00 76 1011.4
20210920051623 78 0 0.0 2.0 0.00 0.00 0.00 75 1011.5
20210920051049 78 0 0.0 3.0 0.00 0.00 0.00 75 1011.5
20210920050611 78 0 0.0 3.0 0.00 0.00 0.00 75 1011.5
20210920050201 78 153 0.0 2.0 0.00 0.00 0.00 75 1011.5
20210920045547 78 0 0.0 5.0 0.00 0.00 0.00 75 1011.5
20210920045048 78 161 0.0 5.0 0.00 0.00 0.00 75 1011.5
20210920044626 78 150 0.0 4.0 0.00 0.00 0.00 75 1011.5
20210920044047 78 159 0.0 3.0 0.00 0.00 0.00 75 1011.4
20210920043546 78 0 0.0 4.0 0.00 0.00 0.00 75 1011.5
20210920043122 78 115 0.0 4.0 0.00 0.00 0.00 74 1011.5
20210920042547 79 0 0.0 4.0 0.00 0.00 0.00 74 1011.4
20210920042047 79 171 0.0 4.0 0.00 0.00 0.00 74 1011.4
20210920041618 79 0 0.0 3.0 0.00 0.00 0.00 74 1011.5
20210920041047 79 0 0.0 4.0 0.00 0.00 0.00 74 1011.5
20210920040554 79 157 0.0 5.0 0.00 0.00 0.00 74 1011.4
20210920040106 79 171 1.0 5.0 0.00 0.00 0.00 74 1011.4
20210920035558 79 0 1.0 5.0 0.00 0.00 0.00 74 1011.5
20210920035047 79 156 0.0 5.0 0.00 0.00 0.00 74 1011.5
20210920034708 79 138 1.0 5.0 0.00 0.00 0.00 74 1011.5
20210920034046 79 159 1.0 6.0 0.00 0.00 0.00 73 1011.5
20210920033606 79 0 1.0 6.0 0.00 0.00 0.00 73 1011.5
20210920033126 79 111 1.0 5.0 0.00 0.00 0.00 73 1011.4
20210920032558 79 153 0.0 4.0 0.00 0.00 0.00 73 1011.5
20210920032102 79 161 1.0 5.0 0.00 0.00 0.00 73 1011.4
20210920031712 79 0 0.0 6.0 0.00 0.00 0.00 72 1011.5
20210920031053 79 171 0.0 6.0 0.00 0.00 0.00 72 1011.5
20210920030548 79 0 0.0 5.0 0.00 0.00 0.00 72 1011.6
20210920030144 80 158 0.0 5.0 0.00 0.00 0.00 72 1011.5
20210920025546 80 0 0.0 5.0 0.00 0.00 0.00 72 1011.4
20210920025047 80 0 0.0 4.0 0.00 0.00 0.00 72 1011.5
20210920024636 80 0 1.0 5.0 0.00 0.00 0.00 71 1011.4
20210920024048 80 171 0.0 5.0 0.00 0.00 0.00 71 1011.3
20210920023547 80 165 1.0 4.0 0.00 0.00 0.00 71 1011.3
20210920023128 80 0 0.0 5.0 0.00 0.00 0.00 70 1011.3
20210920022555 80 131 1.0 5.0 0.00 0.00 0.00 70 1011.1
20210920022046 80 241 0.0 6.0 0.00 0.00 0.00 70 1011.1
20210920021719 80 162 1.0 6.0 0.00 0.00 0.00 69 1011.1
20210920021051 81 159 1.0 5.0 0.00 0.00 0.00 69 1011.0
20210920020549 81 0 1.0 6.0 0.00 0.00 0.00 69 1011.0
20210920020138 81 156 1.0 9.0 0.00 0.00 0.00 68 1010.9
20210920015549 81 0 1.0 9.0 0.00 0.00 0.00 68 1010.8
20210920015052 81 0 0.0 5.0 0.00 0.00 0.00 68 1010.7
20210920014701 81 113 0.0 5.0 0.00 0.00 0.00 68 1010.7
20210920014050 81 0 1.0 5.0 0.00 0.00 0.00 68 1010.5
20210920013550 82 190 1.0 6.0 0.00 0.00 0.00 68 1010.5
20210920013128 82 170 2.0 6.0 0.00 0.00 0.00 68 1010.5
20210920012550 82 307 2.0 5.0 0.00 0.00 0.00 68 1010.3
20210920012050 83 176 1.0 5.0 0.00 0.00 0.00 68 1010.2
20210920011620 83 0 2.0 5.0 0.00 0.00 0.00 67 1010.1
20210920011058 83 212 2.0 7.0 0.00 0.00 0.00 67 1010.1
20210920010549 84 153 1.0 7.0 0.00 0.00 0.00 67 1010.0
20210920010219 84 175 0.0 5.0 0.00 0.00 0.00 66 1009.8
20210920005551 84 153 1.0 5.0 0.00 0.00 0.00 66 1009.8
20210920005051 84 150 2.0 7.0 0.00 0.00 0.00 65 1009.7
20210920004647 85 186 0.0 7.0 0.00 0.00 0.00 64 1009.7
20210920004050 85 136 1.0 7.0 0.00 0.00 0.00 64 1009.8
20210920003601 85 0 1.0 7.0 0.00 0.00 0.00 64 1009.8
20210920003120 85 137 2.0 7.0 0.00 0.00 0.00 63 1009.6
20210920002550 86 181 2.0 6.0 0.00 0.00 0.00 63 1009.6
20210920002108 86 163 1.0 7.0 0.00 0.00 0.00 63 1009.6
20210920001624 87 153 2.0 7.0 0.00 0.00 0.00 62 1009.7
20210920001103 87 160 1.0 5.0 0.00 0.00 0.00 62 1009.5
20210920000558 88 236 1.0 8.0 0.00 0.00 0.00 61 1009.5
20210920000059 89 161 2.0 8.0 0.00 0.00 0.00 59 1009.6
20210919235550 89 165 1.0 7.0 0.00 0.00 0.00 59 1009.5
20210919235049 90 0 1.0 7.0 0.00 0.00 0.00 57 1009.5
20210919234637 91 204 1.0 3.0 0.00 0.00 0.00 57 1009.5
20210919234050 91 155 1.0 3.0 0.00 0.00 0.00 56 1009.3
20210919233547 92 0 1.0 7.0 0.00 0.00 0.00 56 1009.4
20210919233151 92 138 1.0 7.0 0.00 0.00 0.00 54 1009.3
20210919232557 93 103 1.0 6.0 0.00 0.00 0.00 53 1009.2
20210919232056 94 163 2.0 6.0 0.00 0.00 0.00 51 1009.3
20210919231632 95 164 1.0 6.0 0.00 0.00 0.00 49 1009.2
20210919231050 97 144 1.0 5.0 0.00 0.00 0.00 44 1009.2
20210919230549 98 170 0.0 2.0 0.00 0.00 0.00 42 1009.2
20210919230056 99 0 0.0 2.0 0.00 0.00 0.00 41 1009.3
20210919225614 100 0 0.0 1.0 0.00 0.00 0.00 42 1009.2
20210919225050 100 0 0.0 2.0 0.00 0.00 0.00 50 1009.4
20210919224737 100 0 0.0 2.0 0.00 0.00 0.00 40 1009.3
20210919224050 99 184 0.0 2.0 0.00 0.00 0.00 44 1009.4
20210919223550 98 202 0.0 2.0 0.00 0.00 0.00 46 1009.4
20210919223140 98 202 0.0 2.0 0.00 0.00 0.00 44 1009.4
20210919222548 98 197 0.0 2.0 0.00 0.00 0.00 45 1009.2
20210919222050 98 0 0.0 3.0 0.00 0.00 0.00 43 1009.4
20210919221757 99 186 1.0 3.0 0.00 0.00 0.00 41 1009.3
20210919221049 100 0 0.0 2.0 0.00 0.00 0.00 42 1009.3
20210919220554 100 0 0.0 2.0 0.00 0.00 0.00 51 1009.3
20210919220324 99 159 0.0 2.0 0.00 0.00 0.00 53 1009.3
20210919215558 98 159 0.0 2.0 0.00 0.00 0.00 44 1009.4
20210919215049 99 159 0.0 1.0 0.00 0.00 0.00 47 1009.5
20210919214642 97 0 0.0 4.0 0.00 0.00 0.00 45 1009.4
20210919214050 96 0 0.0 4.0 0.00 0.00 0.00 49 1009.5
20210919213614 94 165 0.0 3.0 0.00 0.00 0.00 47 1009.5
20210919213117 95 0 1.0 3.0 0.00 0.00 0.00 48 1009.5
20210919212550 94 0 1.0 3.0 0.00 0.00 0.00 48 1009.6
20210919212051 94 0 0.0 3.0 0.00 0.00 0.00 48 1009.7
20210919211620 94 229 1.0 3.0 0.00 0.00 0.00 55 1009.6
20210919211107 95 244 0.0 3.0 0.00 0.00 0.00 50 1009.7
20210919210550 95 263 0.0 3.0 0.00 0.00 0.00 48 1009.8
20210919210138 95 276 1.0 3.0 0.00 0.00 0.00 48 1009.9
20210919205550 95 248 0.0 4.0 0.00 0.00 0.00 51 1010.0
20210919205105 94 215 1.0 4.0 0.00 0.00 0.00 50 1010.0
20210919204709 95 269 1.0 3.0 0.00 0.00 0.00 50 1010.1
20210919204048 94 239 1.0 5.0 0.00 0.00 0.00 50 1010.1
20210919203559 94 0 1.0 5.0 0.00 0.00 0.00 50 1010.2